This demonstration page uses our WeatherBlox Daily Observations layout. Learn more.

Left ArrowRight Arrow

34.16533, -84.80231

Hourly Observations for February 21, 2015

Temp ( °F °C ) Dew Point ( °F °C ) Humidity (%) Winds ( mph kmh ) Pressure ( in mb ) Visibility ( mi km ) Precip ( " mm )
12:53 am 00:53 Cloudy with Light Wintry Mix 32 0 17 -8.3 54 54 E 6 9 30.32 1027 10 16 0.00 0.03
1:53 am 01:53 Cloudy 33 0.6 13 -10.6 43 43 VRB 7 11 30.30 1026 10 16 0.01 0.25
2:53 am 02:53 Cloudy 34 1.1 12 -11.1 40 40 ESE 7 11 30.27 1025 10 16 0.00 0.00
3:53 am 03:53 Cloudy 34 1.1 11 -11.7 38 38 ESE 7 11 30.24 1024 10 16 0.00 0.00
4:53 am 04:53 Cloudy 35 1.7 10 -12.2 35 35 ESE 8 13 30.24 1024 10 16 0.00 0.00
5:53 am 05:53 Cloudy 35 1.7 11 -11.7 37 37 undefined N/A 30.26 1025 10 16 0.00 0.00
6:53 am 06:53 Cloudy 35 1.7 11 -11.7 37 37 ESE 8 13 30.25 1025 10 16 0.00 0.00
7:53 am 07:53 Cloudy 35 1.7 13 -10.6 40 40 ESE 8 13 30.25 1025 10 16 0.00 0.00
8:53 am 08:53 Cloudy 36 2.2 18 -7.8 48 48 SE 9 15 30.24 1024 10 16 0.00 0.03
9:53 am 09:53 Cloudy 37 2.8 20 -6.7 50 50 S 10 17 30.29 1026 10 16 0.00 0.03
10:53 am 10:53 Cloudy 38 3.3 21 -6.1 51 51 SE 9 15 30.25 1024 10 16 0.00 0.00
11:53 am 11:53 Cloudy 40 4.4 21 -6.1 47 47 E 7 11 30.22 1023 10 16 0.00 0.00
12:53 pm 12:53 Cloudy 43 6.1 22 -5.6 43 43 ESE 7 11 30.18 1022 10 16 0.00 0.00
1:53 pm 13:53 Cloudy 45 7.2 23 -5 42 42 E 6 9 30.12 1020 10 16 0.00 0.00
2:53 pm 14:53 Cloudy 49 9.4 27 -2.8 43 43 VRB 6 9 30.10 1019 10 16 0.00 0.00
3:53 pm 15:53 Cloudy 49 9.4 29 -1.7 46 46 VRB 5 7 30.08 1019 10 16 0.00 0.00
4:53 pm 16:53 Cloudy 50 10 31 -0.6 48 48 ESE 7 11 30.07 1018 10 16 0.00 0.00
5:53 pm 17:53 Cloudy 50 10 32 0 50 50 VRB 7 11 30.04 1017 10 16 0.00 0.00
6:53 pm 18:53 Cloudy with Light Rain 44 6.7 34 1.1 68 68 E 5 7 30.08 1019 10 16 0.01 0.25
7:53 pm 19:53 Cloudy with Light Rain 39 3.9 34 1.1 82 82 E 6 9 30.06 1018 10 16 0.03 0.76
8:53 pm 20:53 Cloudy with Light Rain 39 3.9 36 2.2 89 89 E 7 11 30.06 1018 7 11 0.06 1.52
9:53 pm 21:53 Cloudy with Light Rain 40 4.4 37 2.8 89 89 NE 5 7 30.06 1018 4 6 0.11 2.79
10:53 pm 22:53 Cloudy with Light Rain 41 5 38 3.3 89 89 NE 3 6 30.08 1019 7 11 0.04 1.02
11:44 pm 23:44 Cloudy with Light Rain 41 5 39 3.9 93 93 VRB 6 9 30.15 1021 4 6 0.05 1.27
11:53 pm 23:53 Cloudy with Light Rain 42 5.6 39 3.9 89 89 VRB 5 7 30.16 1021 4 6 0.06 1.52

Powered by AerisWeather